Time,TemperatureF,DewpointF,PressureIn,WindDirection,WindDirectionDegrees,WindSpeedMPH,WindSpeedGustMPH,Humidity,HourlyPrecipIn,Conditions,Clouds,dailyrainin,SoftwareType,DateUTC
2013-01-21 00:00:00,49.5,24.3,18.32,NW,317,2.7,7.2,37,0.00,,,0.00,VWS V14.00,2013-01-21 05:00:00,
2013-01-21 00:03:00,49.5,24.3,18.32,WNW,300,0.0,4.0,37,0.00,,,0.00,VWS V14.00,2013-01-21 05:03:00,
2013-01-21 00:08:00,49.5,24.3,18.32,WNW,288,0.0,0.0,37,0.00,,,0.00,VWS V14.00,2013-01-21 05:08:00,
2013-01-21 00:13:00,48.9,23.8,18.32,West,266,0.0,0.0,37,0.00,,,0.00,VWS V14.00,2013-01-21 05:13:00,
2013-01-21 00:19:00,48.7,23.6,18.32,West,266,0.0,0.0,37,0.00,,,0.00,VWS V14.00,2013-01-21 05:19:00,
2013-01-21 00:24:00,48.4,23.3,18.32,WNW,290,0.0,0.0,37,0.00,,,0.00,VWS V14.00,2013-01-21 05:24:00,
2013-01-21 00:29:00,48.2,23.8,18.32,WNW,300,0.0,0.0,38,0.00,,,0.00,VWS V14.00,2013-01-21 05:29:00,
2013-01-21 00:34:00,48.2,23.8,18.32,NNW,333,0.0,0.0,38,0.00,,,0.00,VWS V14.00,2013-01-21 05:34:00,
2013-01-21 00:39:00,48.4,24.0,18.32,WSW,257,0.0,0.0,38,0.00,,,0.00,VWS V14.00,2013-01-21 05:39:00,
2013-01-21 00:44:00,48.2,23.8,18.32,WSW,257,0.0,0.0,38,0.00,,,0.00,VWS V14.00,2013-01-21 05:44:00,
2013-01-21 00:49:00,47.8,23.5,18.32,West,270,0.0,0.0,38,0.00,,,0.00,VWS V14.00,2013-01-21 05:49:00,
2013-01-21 00:55:00,47.5,23.8,18.32,West,270,0.0,0.0,39,0.00,,,0.00,VWS V14.00,2013-01-21 05:55:00,
2013-01-21 01:00:00,47.3,23.6,18.32,WNW,287,0.0,0.0,39,0.00,,,0.00,VWS V14.00,2013-01-21 06:00:00,
2013-01-21 01:05:00,46.9,23.3,18.32,WNW,282,0.0,0.0,39,0.00,,,0.00,VWS V14.00,2013-01-21 06:05:00,
2013-01-21 01:10:00,47.1,23.5,18.32,WNW,282,0.0,0.0,39,0.00,,,0.00,VWS V14.00,2013-01-21 06:10:00,
2013-01-21 01:15:00,47.1,23.5,18.32,WNW,285,0.0,0.0,39,0.00,,,0.00,VWS V14.00,2013-01-21 06:15:00,
2013-01-21 01:20:00,46.9,23.3,18.32,WNW,285,0.0,0.0,39,0.00,,,0.00,VWS V14.00,2013-01-21 06:20:00,
2013-01-21 01:26:00,46.8,23.7,18.32,WNW,286,0.0,0.0,40,0.00,,,0.00,VWS V14.00,2013-01-21 06:26:00,
2013-01-21 01:31:00,46.6,23.6,18.32,WNW,285,0.0,0.0,40,0.00,,,0.00,VWS V14.00,2013-01-21 06:31:00,
2013-01-21 01:36:00,46.6,23.6,18.32,WNW,285,0.0,0.0,40,0.00,,,0.00,VWS V14.00,2013-01-21 06:36:00,
2013-01-21 01:41:00,46.4,23.4,18.32,WNW,285,0.0,0.0,40,0.00,,,0.00,VWS V14.00,2013-01-21 06:41:00,
2013-01-21 01:47:00,46.2,23.2,18.32,WNW,285,0.0,0.0,40,0.00,,,0.00,VWS V14.00,2013-01-21 06:47:00,
2013-01-21 01:52:00,45.9,23.5,18.32,WNW,286,0.0,0.0,41,0.00,,,0.00,VWS V14.00,2013-01-21 06:52:00,
2013-01-21 01:57:00,45.7,23.4,18.32,WNW,285,0.0,0.0,41,0.00,,,0.00,VWS V14.00,2013-01-21 06:57:00,
2013-01-21 02:02:00,45.3,23.6,18.32,WNW,285,0.0,0.0,42,0.00,,,0.00,VWS V14.00,2013-01-21 07:02:00,
2013-01-21 02:07:00,45.1,23.4,18.32,WNW,285,0.0,0.0,42,0.00,,,0.00,VWS V14.00,2013-01-21 07:07:00,
2013-01-21 02:13:00,45.1,23.4,18.32,WNW,286,0.0,0.0,42,0.00,,,0.00,VWS V14.00,2013-01-21 07:13:00,
2013-01-21 02:18:00,45.0,23.8,18.32,WSW,247,0.0,0.0,43,0.00,,,0.00,VWS V14.00,2013-01-21 07:18:00,
2013-01-21 02:23:00,45.0,23.8,18.32,SW,226,0.0,0.0,43,0.00,,,0.00,VWS V14.00,2013-01-21 07:23:00,
2013-01-21 02:28:00,44.8,23.7,18.32,SW,226,0.0,0.0,43,0.00,,,0.00,VWS V14.00,2013-01-21 07:28:00,
2013-01-21 02:33:00,44.6,24.0,18.32,SW,226,0.0,0.0,44,0.00,,,0.00,VWS V14.00,2013-01-21 07:33:00,
2013-01-21 02:38:00,44.1,23.6,18.32,West,260,0.0,0.0,44,0.00,,,0.00,VWS V14.00,2013-01-21 07:38:00,
2013-01-21 02:44:00,44.1,24.1,18.32,West,260,0.0,0.0,45,0.00,,,0.00,VWS V14.00,2013-01-21 07:44:00,
2013-01-21 02:49:00,44.1,24.1,18.32,NW,311,0.0,0.0,45,0.00,,,0.00,VWS V14.00,2013-01-21 07:49:00,
2013-01-21 02:54:00,44.1,24.1,18.32,NW,313,0.0,2.7,45,0.00,,,0.00,VWS V14.00,2013-01-21 07:54:00,
2013-01-21 02:59:00,44.1,24.1,18.32,NW,324,2.2,3.6,45,0.00,,,0.00,VWS V14.00,2013-01-21 07:59:00,
2013-01-21 03:04:00,44.4,23.9,18.32,West,281,2.7,2.7,44,0.00,,,0.00,VWS V14.00,2013-01-21 08:04:00,
2013-01-21 03:09:00,44.4,23.9,18.32,WNW,295,0.0,0.0,44,0.00,,,0.00,VWS V14.00,2013-01-21 08:09:00,
2013-01-21 03:15:00,44.2,23.2,18.32,WNW,295,0.0,0.0,43,0.00,,,0.00,VWS V14.00,2013-01-21 08:15:00,
2013-01-21 03:20:00,44.6,23.5,18.32,WNW,295,3.1,3.1,43,0.00,,,0.00,VWS V14.00,2013-01-21 08:20:00,
2013-01-21 03:25:00,44.2,23.7,18.32,WNW,295,0.0,0.0,44,0.00,,,0.00,VWS V14.00,2013-01-21 08:25:00,
2013-01-21 03:30:00,44.1,23.6,18.32,WNW,289,0.0,2.7,44,0.00,,,0.00,VWS V14.00,2013-01-21 08:30:00,
2013-01-21 03:35:00,44.1,23.6,18.32,WNW,289,0.0,0.0,44,0.00,,,0.00,VWS V14.00,2013-01-21 08:35:00,
2013-01-21 03:40:00,43.9,23.4,18.32,WNW,289,0.0,0.0,44,0.00,,,0.00,VWS V14.00,2013-01-21 08:40:00,
2013-01-21 03:45:00,43.7,23.2,18.32,WNW,289,0.0,0.0,44,0.00,,,0.00,VWS V14.00,2013-01-21 08:45:00,
2013-01-21 03:50:00,43.5,23.6,18.32,WNW,289,0.0,0.0,45,0.00,,,0.00,VWS V14.00,2013-01-21 08:50:00,
2013-01-21 03:56:00,43.3,23.4,18.32,WNW,289,0.0,0.0,45,0.00,,,0.00,VWS V14.00,2013-01-21 08:56:00,
2013-01-21 04:01:00,43.3,23.4,18.32,WNW,289,0.0,0.0,45,0.00,,,0.00,VWS V14.00,2013-01-21 09:01:00,
2013-01-21 04:07:00,43.2,23.3,18.32,WNW,289,0.0,0.0,45,0.00,,,0.00,VWS V14.00,2013-01-21 09:07:00,
2013-01-21 04:12:00,43.0,23.6,18.32,WNW,289,0.0,0.0,46,0.00,,,0.00,VWS V14.00,2013-01-21 09:12:00,
2013-01-21 04:17:00,42.4,24.1,18.32,WNW,289,0.0,0.0,48,0.00,,,0.00,VWS V14.00,2013-01-21 09:17:00,
2013-01-21 04:22:00,42.3,24.0,18.32,WNW,289,0.0,0.0,48,0.00,,,0.00,VWS V14.00,2013-01-21 09:22:00,
2013-01-21 04:27:00,42.3,24.0,18.32,WNW,289,0.0,0.0,48,0.00,,,0.00,VWS V14.00,2013-01-21 09:27:00,
2013-01-21 04:33:00,41.9,24.1,18.32,WNW,289,0.0,0.0,49,0.00,,,0.00,VWS V14.00,2013-01-21 09:33:00,
2013-01-21 04:38:00,41.5,23.8,18.32,WNW,289,0.0,0.0,49,0.00,,,0.00,VWS V14.00,2013-01-21 09:38:00,
2013-01-21 04:43:00,41.4,24.1,18.32,WNW,289,0.0,0.0,50,0.00,,,0.00,VWS V14.00,2013-01-21 09:43:00,
2013-01-21 04:48:00,41.4,24.1,18.32,WNW,289,0.0,0.0,50,0.00,,,0.00,VWS V14.00,2013-01-21 09:48:00,
2013-01-21 04:53:00,41.4,24.1,18.32,WNW,289,0.0,0.0,50,0.00,,,0.00,VWS V14.00,2013-01-21 09:53:00,
2013-01-21 04:58:00,41.2,24.0,18.32,WNW,289,0.0,0.0,50,0.00,,,0.00,VWS V14.00,2013-01-21 09:58:00,
2013-01-21 05:04:00,40.6,23.9,18.32,West,263,0.0,0.0,51,0.00,,,0.00,VWS V14.00,2013-01-21 10:04:00,
2013-01-21 05:09:00,40.6,23.9,18.32,West,262,0.0,0.0,51,0.00,,,0.00,VWS V14.00,2013-01-21 10:09:00,
2013-01-21 05:14:00,40.6,23.9,18.32,NW,304,0.0,0.0,51,0.00,,,0.00,VWS V14.00,2013-01-21 10:14:00,
2013-01-21 05:19:00,41.0,24.3,18.32,WNW,290,0.0,0.0,51,0.00,,,0.00,VWS V14.00,2013-01-21 10:19:00,
2013-01-21 05:24:00,40.8,24.1,18.32,WNW,290,0.0,0.0,51,0.00,,,0.00,VWS V14.00,2013-01-21 10:24:00,
2013-01-21 05:29:00,41.0,24.3,18.32,WNW,290,0.0,0.0,51,0.00,,,0.00,VWS V14.00,2013-01-21 10:29:00,
2013-01-21 05:35:00,40.8,24.1,18.32,WNW,290,0.0,0.0,51,0.00,,,0.00,VWS V14.00,2013-01-21 10:35:00,
2013-01-21 05:40:00,40.6,24.4,18.32,WNW,290,0.0,0.0,52,0.00,,,0.00,VWS V14.00,2013-01-21 10:40:00,
2013-01-21 05:45:00,40.6,24.4,18.32,WNW,290,0.0,0.0,52,0.00,,,0.00,VWS V14.00,2013-01-21 10:45:00,
2013-01-21 05:50:00,40.6,23.9,18.32,WNW,290,0.0,0.0,51,0.00,,,0.00,VWS V14.00,2013-01-21 10:50:00,
2013-01-21 05:55:00,40.5,24.2,18.32,WNW,290,0.0,0.0,52,0.00,,,0.00,VWS V14.00,2013-01-21 10:55:00,
2013-01-21 06:00:00,40.3,24.1,18.32,WNW,290,0.0,0.0,52,0.00,,,0.00,VWS V14.00,2013-01-21 11:00:00,
2013-01-21 06:05:00,40.1,23.9,18.32,WNW,290,0.0,0.0,52,0.00,,,0.00,VWS V14.00,2013-01-21 11:05:00,
2013-01-21 06:10:00,39.9,23.7,18.32,WNW,290,0.0,0.0,52,0.00,,,0.00,VWS V14.00,2013-01-21 11:10:00,
2013-01-21 06:15:00,39.9,24.2,18.32,WNW,290,0.0,0.0,53,0.00,,,0.00,VWS V14.00,2013-01-21 11:15:00,
2013-01-21 06:21:00,39.7,24.0,18.32,WNW,290,0.0,0.0,53,0.00,,,0.00,VWS V14.00,2013-01-21 11:21:00,
2013-01-21 06:26:00,39.6,24.3,18.32,WNW,290,0.0,0.0,54,0.00,,,0.00,VWS V14.00,2013-01-21 11:26:00,
2013-01-21 06:31:00,39.6,24.7,18.32,WSW,253,0.0,0.0,55,0.00,,,0.00,VWS V14.00,2013-01-21 11:31:00,
2013-01-21 06:37:00,39.4,24.6,18.32,WSW,253,0.0,0.0,55,0.00,,,0.00,VWS V14.00,2013-01-21 11:37:00,
2013-01-21 06:42:00,39.2,24.8,18.32,WSW,253,0.0,0.0,56,0.00,,,0.00,VWS V14.00,2013-01-21 11:42:00,
2013-01-21 06:47:00,39.2,24.8,18.32,WSW,253,0.0,0.0,56,0.00,,,0.00,VWS V14.00,2013-01-21 11:47:00,
2013-01-21 06:52:00,39.2,25.3,18.32,WSW,253,0.0,0.0,57,0.00,,,0.00,VWS V14.00,2013-01-21 11:52:00,
2013-01-21 06:57:00,39.0,25.1,18.32,WSW,253,0.0,0.0,57,0.00,,,0.00,VWS V14.00,2013-01-21 11:57:00,
2013-01-21 07:02:00,38.8,24.9,18.32,WSW,253,0.0,0.0,57,0.00,,,0.00,VWS V14.00,2013-01-21 12:02:00,
2013-01-21 07:07:00,38.8,25.3,18.32,WSW,253,0.0,0.0,58,0.00,,,0.00,VWS V14.00,2013-01-21 12:07:00,
2013-01-21 07:12:00,38.7,25.2,18.32,WSW,253,0.0,0.0,58,0.00,,,0.00,VWS V14.00,2013-01-21 12:12:00,
2013-01-21 07:17:00,38.7,25.2,18.32,WSW,253,0.0,0.0,58,0.00,,,0.00,VWS V14.00,2013-01-21 12:17:00,
2013-01-21 07:22:00,38.7,25.6,18.32,WSW,253,0.0,0.0,59,0.00,,,0.00,VWS V14.00,2013-01-21 12:22:00,
2013-01-21 07:28:00,38.7,25.6,18.32,WSW,254,0.0,0.0,59,0.00,,,0.00,VWS V14.00,2013-01-21 12:28:00,
2013-01-21 07:33:00,38.7,25.2,18.32,WSW,254,0.0,0.0,58,0.00,,,0.00,VWS V14.00,2013-01-21 12:33:00,
2013-01-21 07:38:00,38.7,25.2,18.32,WSW,253,0.0,0.0,58,0.00,,,0.00,VWS V14.00,2013-01-21 12:38:00,
2013-01-21 07:43:00,38.8,25.3,18.32,WSW,254,0.0,0.0,58,0.00,,,0.00,VWS V14.00,2013-01-21 12:43:00,
2013-01-21 07:48:00,38.8,25.8,18.32,WSW,254,0.0,0.0,59,0.00,,,0.00,VWS V14.00,2013-01-21 12:48:00,
2013-01-21 07:53:00,38.7,25.2,18.32,WSW,253,0.0,0.0,58,0.00,,,0.00,VWS V14.00,2013-01-21 12:53:00,
2013-01-21 07:58:00,38.7,25.2,18.32,WSW,253,0.0,0.0,58,0.00,,,0.00,VWS V14.00,2013-01-21 12:58:00,
2013-01-21 08:03:00,38.7,25.2,18.32,WSW,254,0.0,0.0,58,0.00,,,0.00,VWS V14.00,2013-01-21 13:03:00,
2013-01-21 08:08:00,38.8,25.8,18.32,WSW,253,0.0,0.0,59,0.00,,,0.00,VWS V14.00,2013-01-21 13:08:00,
2013-01-21 08:13:00,39.2,25.7,18.32,WSW,254,0.0,0.0,58,0.00,,,0.00,VWS V14.00,2013-01-21 13:13:00,
2013-01-21 08:18:00,39.4,26.3,18.32,WSW,247,0.0,0.0,59,0.00,,,0.00,VWS V14.00,2013-01-21 13:18:00,
2013-01-21 08:24:00,40.1,26.1,18.32,West,275,0.0,0.0,57,0.00,,,0.00,VWS V14.00,2013-01-21 13:24:00,
2013-01-21 08:29:00,40.5,25.6,18.32,West,262,0.0,0.0,55,0.00,,,0.00,VWS V14.00,2013-01-21 13:29:00,
2013-01-21 08:34:00,41.0,25.2,18.32,West,262,0.0,0.0,53,0.00,,,0.00,VWS V14.00,2013-01-21 13:34:00,
2013-01-21 08:39:00,41.5,25.2,18.32,NW,310,0.0,0.0,52,0.00,,,0.00,VWS V14.00,2013-01-21 13:39:00,
2013-01-21 08:44:00,42.3,25.0,18.32,West,261,0.0,0.0,50,0.00,,,0.00,VWS V14.00,2013-01-21 13:44:00,
2013-01-21 08:49:00,43.0,24.6,18.32,WSW,247,0.0,0.0,48,0.00,,,0.00,VWS V14.00,2013-01-21 13:49:00,
2013-01-21 08:54:00,43.3,25.0,18.32,West,281,0.0,3.1,48,0.00,,,0.00,VWS V14.00,2013-01-21 13:54:00,
2013-01-21 08:59:00,43.7,24.8,18.32,WNW,282,0.0,5.8,47,0.00,,,0.00,VWS V14.00,2013-01-21 13:59:00,
2013-01-21 09:04:00,44.4,25.0,18.32,WNW,290,0.0,0.0,46,0.00,,,0.00,VWS V14.00,2013-01-21 14:04:00,
2013-01-21 09:10:00,45.0,24.4,18.32,WNW,283,0.0,3.6,44,0.00,,,0.00,VWS V14.00,2013-01-21 14:10:00,
2013-01-21 09:15:00,45.5,24.3,18.32,West,274,2.7,5.8,43,0.00,,,0.00,VWS V14.00,2013-01-21 14:15:00,
2013-01-21 09:20:00,46.4,23.4,18.32,WSW,248,2.7,2.7,40,0.00,,,0.00,VWS V14.00,2013-01-21 14:20:00,
2013-01-21 09:25:00,47.1,23.5,18.32,WSW,245,0.0,3.1,39,0.00,,,0.00,VWS V14.00,2013-01-21 14:25:00,
2013-01-21 09:30:00,47.5,23.2,18.32,NW,324,2.7,3.6,38,0.00,,,0.00,VWS V14.00,2013-01-21 14:30:00,
2013-01-21 09:35:00,48.0,23.6,18.32,NW,320,2.7,3.1,38,0.00,,,0.00,VWS V14.00,2013-01-21 14:35:00,
2013-01-21 09:40:00,48.6,23.5,18.32,NNW,337,0.0,0.0,37,0.00,,,0.00,VWS V14.00,2013-01-21 14:40:00,
2013-01-21 09:45:00,49.1,24.0,18.32,NW,317,0.0,2.7,37,0.00,,,0.00,VWS V14.00,2013-01-21 14:45:00,
2013-01-21 09:50:00,50.2,22.9,18.32,WSW,254,2.2,2.7,34,0.00,,,0.00,VWS V14.00,2013-01-21 14:50:00,
2013-01-21 09:55:00,50.9,22.1,18.32,NW,326,4.0,4.0,32,0.00,,,0.00,VWS V14.00,2013-01-21 14:55:00,
2013-01-21 10:00:00,51.1,21.5,18.32,SW,231,3.1,3.1,31,0.00,,,0.00,VWS V14.00,2013-01-21 15:00:00,
2013-01-21 10:05:00,51.6,22.7,18.32,WSW,254,2.7,4.0,32,0.00,,,0.00,VWS V14.00,2013-01-21 15:05:00,
2013-01-21 10:10:00,52.0,21.5,18.32,NW,308,0.0,2.7,30,0.00,,,0.00,VWS V14.00,2013-01-21 15:10:00,
2013-01-21 10:16:00,52.3,21.8,18.32,NW,315,3.1,4.0,30,0.00,,,0.00,VWS V14.00,2013-01-21 15:16:00,
2013-01-21 10:21:00,52.9,21.5,18.32,North,357,2.7,3.1,29,0.00,,,0.00,VWS V14.00,2013-01-21 15:21:00,
2013-01-21 10:26:00,53.4,22.0,18.32,North,357,3.6,6.3,29,0.00,,,0.00,VWS V14.00,2013-01-21 15:26:00,
2013-01-21 10:31:00,54.0,21.6,18.32,West,261,2.2,4.0,28,0.00,,,0.00,VWS V14.00,2013-01-21 15:31:00,
2013-01-21 10:36:00,54.3,21.1,18.32,WSW,253,2.2,8.1,27,0.00,,,0.00,VWS V14.00,2013-01-21 15:36:00,
2013-01-21 10:41:00,55.0,20.8,18.32,North,2,3.1,4.9,26,0.00,,,0.00,VWS V14.00,2013-01-21 15:41:00,
2013-01-21 10:46:00,55.6,20.3,18.32,NW,310,4.9,4.9,25,0.00,,,0.00,VWS V14.00,2013-01-21 15:46:00,
2013-01-21 10:51:00,55.9,20.6,18.32,NNE,21,5.4,5.4,25,0.00,,,0.00,VWS V14.00,2013-01-21 15:51:00,
2013-01-21 10:56:00,56.3,21.0,18.32,North,357,4.9,5.8,25,0.00,,,0.00,VWS V14.00,2013-01-21 15:56:00,
2013-01-21 11:01:00,56.7,18.3,18.32,NNW,335,4.0,4.9,22,0.00,,,0.00,VWS V14.00,2013-01-21 16:01:00,
2013-01-21 11:06:00,57.0,21.6,18.32,North,8,5.8,5.8,25,0.00,,,0.00,VWS V14.00,2013-01-21 16:06:00,
2013-01-21 11:11:00,57.4,18.9,18.32,NNW,341,4.9,5.4,22,0.00,,,0.00,VWS V14.00,2013-01-21 16:11:00,
2013-01-21 11:16:00,57.7,19.2,18.32,NNW,327,4.0,5.4,22,0.00,,,0.00,VWS V14.00,2013-01-21 16:16:00,
2013-01-21 11:21:00,58.1,16.1,18.32,NW,321,4.9,11.0,19,0.00,,,0.00,VWS V14.00,2013-01-21 16:21:00,
2013-01-21 11:26:00,58.3,19.6,18.32,NNW,330,2.7,5.4,22,0.00,,,0.00,VWS V14.00,2013-01-21 16:26:00,
2013-01-21 11:32:00,58.8,16.7,18.32,West,266,2.7,8.1,19,0.00,,,0.00,VWS V14.00,2013-01-21 16:32:00,
2013-01-21 11:37:00,59.4,17.1,18.32,North,357,8.7,8.7,19,0.00,,,0.00,VWS V14.00,2013-01-21 16:37:00,
2013-01-21 11:42:00,59.4,17.1,18.32,SW,224,5.4,5.4,19,0.00,,,0.00,VWS V14.00,2013-01-21 16:42:00,
2013-01-21 11:47:00,59.4,14.6,18.32,SW,224,3.1,5.4,17,0.00,,,0.00,VWS V14.00,2013-01-21 16:47:00,
2013-01-21 11:52:00,59.7,14.9,18.32,WNW,292,4.9,6.7,17,0.00,,,0.00,VWS V14.00,2013-01-21 16:52:00,
2013-01-21 11:57:00,60.4,15.4,18.32,NNW,334,4.0,4.0,17,0.00,,,0.00,VWS V14.00,2013-01-21 16:57:00,
2013-01-21 12:02:00,60.6,15.6,18.32,WNW,282,5.8,5.8,17,0.00,,,0.00,VWS V14.00,2013-01-21 17:02:00,
2013-01-21 12:07:00,61.0,14.5,18.32,North,357,2.7,9.2,16,0.00,,,0.00,VWS V14.00,2013-01-21 17:07:00,
2013-01-21 12:12:00,60.8,14.4,18.32,North,3,4.9,4.9,16,0.00,,,0.00,VWS V14.00,2013-01-21 17:12:00,
2013-01-21 12:17:00,61.5,14.9,18.32,SW,231,6.3,6.3,16,0.00,,,0.00,VWS V14.00,2013-01-21 17:17:00,
2013-01-21 12:22:00,61.9,15.2,18.32,NW,322,4.9,6.3,16,0.00,,,0.00,VWS V14.00,2013-01-21 17:22:00,
2013-01-21 12:27:00,62.2,15.5,18.32,WSW,237,7.6,7.6,16,0.00,,,0.00,VWS V14.00,2013-01-21 17:27:00,
2013-01-21 12:32:00,61.9,15.2,18.32,NNW,344,4.9,4.9,16,0.00,,,0.00,VWS V14.00,2013-01-21 17:32:00,
2013-01-21 12:37:00,62.2,15.5,18.32,SW,216,2.2,7.6,16,0.00,,,0.00,VWS V14.00,2013-01-21 17:37:00,
2013-01-21 12:42:00,62.6,15.8,18.32,West,264,6.3,6.3,16,0.00,,,0.00,VWS V14.00,2013-01-21 17:42:00,
2013-01-21 12:48:00,62.6,15.8,18.32,WNW,287,4.0,8.1,16,0.00,,,0.00,VWS V14.00,2013-01-21 17:48:00,
2013-01-21 12:53:00,62.8,15.9,18.32,SSW,210,8.1,12.8,16,0.00,,,0.00,VWS V14.00,2013-01-21 17:53:00,
2013-01-21 12:58:00,63.0,16.1,18.32,WNW,293,8.1,10.1,16,0.00,,,0.00,VWS V14.00,2013-01-21 17:58:00,
2013-01-21 13:03:00,63.0,16.1,18.32,West,278,4.0,8.1,16,0.00,,,0.00,VWS V14.00,2013-01-21 18:03:00,
2013-01-21 13:08:00,63.7,16.7,18.32,NW,318,2.7,5.4,16,0.00,,,0.00,VWS V14.00,2013-01-21 18:08:00,
2013-01-21 13:13:00,63.9,16.8,18.32,NW,315,4.9,10.1,16,0.00,,,0.00,VWS V14.00,2013-01-21 18:13:00,
2013-01-21 13:18:00,63.7,16.7,18.32,WNW,285,8.1,8.1,16,0.00,,,0.00,VWS V14.00,2013-01-21 18:18:00,
2013-01-21 13:23:00,63.9,16.8,18.32,North,0,7.6,8.3,16,0.00,,,0.00,VWS V14.00,2013-01-21 18:23:00,
2013-01-21 13:29:00,63.7,16.7,18.32,NE,36,5.8,5.8,16,0.00,,,0.00,VWS V14.00,2013-01-21 18:29:00,
2013-01-21 13:34:00,63.9,16.8,18.32,NW,316,4.0,8.3,16,0.00,,,0.00,VWS V14.00,2013-01-21 18:34:00,
2013-01-21 13:39:00,63.9,16.8,18.32,NNW,337,5.4,7.6,16,0.00,,,0.00,VWS V14.00,2013-01-21 18:39:00,
2013-01-21 13:44:00,64.8,16.1,18.32,WSW,256,6.7,6.7,15,0.00,,,0.00,VWS V14.00,2013-01-21 18:44:00,
2013-01-21 13:49:00,64.8,16.1,18.32,North,357,6.3,6.3,15,0.00,,,0.00,VWS V14.00,2013-01-21 18:49:00,
2013-01-21 13:54:00,64.8,16.1,18.32,NNW,335,5.4,7.6,15,0.00,,,0.00,VWS V14.00,2013-01-21 18:54:00,
2013-01-21 13:59:00,64.6,15.9,18.32,SW,228,5.8,5.8,15,0.00,,,0.00,VWS V14.00,2013-01-21 18:59:00,
2013-01-21 14:04:00,64.9,16.2,18.32,SW,234,5.8,5.8,15,0.00,,,0.00,VWS V14.00,2013-01-21 19:04:00,
2013-01-21 14:09:00,64.4,15.8,18.32,North,353,8.3,8.3,15,0.00,,,0.00,VWS V14.00,2013-01-21 19:09:00,
2013-01-21 14:14:00,64.0,17.0,18.32,NNW,328,5.4,5.4,16,0.00,,,0.00,VWS V14.00,2013-01-21 19:14:00,
2013-01-21 14:19:00,64.2,17.1,18.32,SW,232,10.5,10.5,16,0.00,,,0.00,VWS V14.00,2013-01-21 19:19:00,
2013-01-21 14:24:00,64.0,17.0,18.32,WSW,247,5.8,5.8,16,0.00,,,0.00,VWS V14.00,2013-01-21 19:24:00,
2013-01-21 14:30:00,64.0,17.0,18.32,WNW,288,4.0,7.6,16,0.00,,,0.00,VWS V14.00,2013-01-21 19:30:00,
2013-01-21 14:35:00,64.0,17.0,18.32,North,353,4.0,8.1,16,0.00,,,0.00,VWS V14.00,2013-01-21 19:35:00,
2013-01-21 14:40:00,65.8,16.9,18.32,SW,218,4.0,10.1,15,0.00,,,0.00,VWS V14.00,2013-01-21 19:40:00,
2013-01-21 14:45:00,68.7,19.2,18.32,North,6,0.0,3.6,15,0.00,,,0.00,VWS V14.00,2013-01-21 19:45:00,
2013-01-21 14:50:00,67.6,18.4,18.32,West,281,6.3,11.0,15,0.00,,,0.00,VWS V14.00,2013-01-21 19:50:00,
2013-01-21 14:55:00,68.5,19.1,18.32,NW,319,3.1,4.9,15,0.00,,,0.00,VWS V14.00,2013-01-21 19:55:00,
2013-01-21 15:00:00,68.7,19.2,18.32,South,171,3.6,3.6,15,0.00,,,0.00,VWS V14.00,2013-01-21 20:00:00,
2013-01-21 15:05:00,68.7,19.2,18.32,WNW,282,3.1,7.6,15,0.00,,,0.00,VWS V14.00,2013-01-21 20:05:00,
2013-01-21 15:10:00,69.4,19.8,18.32,SW,235,7.2,7.2,15,0.00,,,0.00,VWS V14.00,2013-01-21 20:10:00,
2013-01-21 15:15:00,65.7,16.8,18.32,NNW,345,5.8,8.3,15,0.00,,,0.00,VWS V14.00,2013-01-21 20:15:00,
2013-01-21 15:20:00,68.4,19.0,18.32,SW,223,3.6,5.8,15,0.00,,,0.00,VWS V14.00,2013-01-21 20:20:00,
2013-01-21 15:25:00,67.3,18.1,18.32,WNW,299,3.6,4.0,15,0.00,,,0.00,VWS V14.00,2013-01-21 20:25:00,
2013-01-21 15:31:00,66.6,17.5,18.32,NNW,332,6.3,12.8,15,0.00,,,0.00,VWS V14.00,2013-01-21 20:31:00,
2013-01-21 15:36:00,65.3,16.5,18.32,SW,215,5.4,15.0,15,0.00,,,0.00,VWS V14.00,2013-01-21 20:36:00,
2013-01-21 15:41:00,68.0,18.7,18.32,SW,219,0.0,4.0,15,0.00,,,0.00,VWS V14.00,2013-01-21 20:41:00,
2013-01-21 15:46:00,66.6,17.5,18.32,NW,313,3.6,8.7,15,0.00,,,0.00,VWS V14.00,2013-01-21 20:46:00,
2013-01-21 15:51:00,68.5,19.1,18.32,NNW,341,3.1,8.3,15,0.00,,,0.00,VWS V14.00,2013-01-21 20:51:00,
2013-01-21 15:56:00,67.6,18.4,18.32,SW,236,3.6,3.6,15,0.00,,,0.00,VWS V14.00,2013-01-21 20:56:00,
2013-01-21 16:01:00,68.4,19.0,18.32,North,353,3.6,11.0,15,0.00,,,0.00,VWS V14.00,2013-01-21 21:01:00,
2013-01-21 16:06:00,70.9,19.4,18.32,NW,326,4.0,10.5,14,0.00,,,0.00,VWS V14.00,2013-01-21 21:06:00,
2013-01-21 16:11:00,69.3,19.7,18.32,NW,315,7.2,8.1,15,0.00,,,0.00,VWS V14.00,2013-01-21 21:11:00,
2013-01-21 16:17:00,65.7,16.8,18.32,NW,307,8.7,13.2,15,0.00,,,0.00,VWS V14.00,2013-01-21 21:17:00,
2013-01-21 16:22:00,65.3,16.5,18.32,WSW,239,8.1,8.1,15,0.00,,,0.00,VWS V14.00,2013-01-21 21:22:00,
2013-01-21 16:27:00,66.2,17.2,18.32,WNW,289,8.1,8.1,15,0.00,,,0.00,VWS V14.00,2013-01-21 21:27:00,
2013-01-21 16:32:00,64.8,16.1,18.32,West,260,6.3,8.7,15,0.00,,,0.00,VWS V14.00,2013-01-21 21:32:00,
2013-01-21 16:37:00,64.2,17.1,18.32,NNW,337,8.7,10.5,16,0.00,,,0.00,VWS V14.00,2013-01-21 21:37:00,
2013-01-21 16:42:00,64.2,17.1,18.32,WNW,297,4.0,8.7,16,0.00,,,0.00,VWS V14.00,2013-01-21 21:42:00,
2013-01-21 16:47:00,63.3,16.4,18.32,NNW,336,7.6,7.6,16,0.00,,,0.00,VWS V14.00,2013-01-21 21:47:00,
2013-01-21 16:52:00,63.9,16.8,18.32,WSW,243,4.9,4.9,16,0.00,,,0.00,VWS V14.00,2013-01-21 21:52:00,
2013-01-21 16:57:00,63.9,16.8,18.32,NW,307,5.8,6.3,16,0.00,,,0.00,VWS V14.00,2013-01-21 21:57:00,
2013-01-21 17:02:00,63.5,16.5,18.32,WSW,257,5.4,5.4,16,0.00,,,0.00,VWS V14.00,2013-01-21 22:02:00,
2013-01-21 17:08:00,62.6,15.8,18.32,SW,231,3.1,5.4,16,0.00,,,0.00,VWS V14.00,2013-01-21 22:08:00,
2013-01-21 17:13:00,61.7,15.1,18.32,NNE,23,5.8,8.1,16,0.00,,,0.00,VWS V14.00,2013-01-21 22:13:00,
2013-01-21 17:18:00,61.0,14.5,18.32,West,278,8.3,9.6,16,0.00,,,0.00,VWS V14.00,2013-01-21 22:18:00,
2013-01-21 17:23:00,60.6,15.6,18.32,NW,319,3.1,3.1,17,0.00,,,0.00,VWS V14.00,2013-01-21 22:23:00,
2013-01-21 17:28:00,60.3,15.3,18.32,WNW,284,5.4,6.7,17,0.00,,,0.00,VWS V14.00,2013-01-21 22:28:00,
2013-01-21 17:33:00,59.9,15.0,18.32,NW,323,4.0,6.3,17,0.00,,,0.00,VWS V14.00,2013-01-21 22:33:00,
2013-01-21 17:38:00,59.9,15.0,18.32,West,273,3.6,5.4,17,0.00,,,0.00,VWS V14.00,2013-01-21 22:38:00,
2013-01-21 17:43:00,59.4,14.6,18.32,NW,315,4.0,7.2,17,0.00,,,0.00,VWS V14.00,2013-01-21 22:43:00,
2013-01-21 17:48:00,59.0,14.3,18.32,NW,325,4.0,5.8,17,0.00,,,0.00,VWS V14.00,2013-01-21 22:48:00,
2013-01-21 17:53:00,58.8,16.7,18.32,West,262,3.6,11.9,19,0.00,,,0.00,VWS V14.00,2013-01-21 22:53:00,
2013-01-21 17:58:00,58.6,16.5,18.32,WNW,291,4.0,5.8,19,0.00,,,0.00,VWS V14.00,2013-01-21 22:58:00,
2013-01-21 18:03:00,58.6,16.5,18.32,WNW,286,7.6,8.7,19,0.00,,,0.00,VWS V14.00,2013-01-21 23:03:00,
2013-01-21 18:09:00,58.1,16.1,18.32,WNW,293,3.6,3.6,19,0.00,,,0.00,VWS V14.00,2013-01-21 23:09:00,
2013-01-21 18:14:00,57.6,15.6,18.32,West,281,6.3,6.3,19,0.00,,,0.00,VWS V14.00,2013-01-21 23:14:00,
2013-01-21 18:19:00,57.6,15.6,18.32,WSW,255,0.0,7.2,19,0.00,,,0.00,VWS V14.00,2013-01-21 23:19:00,
2013-01-21 18:24:00,57.2,15.3,18.32,West,281,8.3,8.7,19,0.00,,,0.00,VWS V14.00,2013-01-21 23:24:00,
2013-01-21 18:29:00,56.8,16.2,18.32,NW,311,4.0,8.1,20,0.00,,,0.00,VWS V14.00,2013-01-21 23:29:00,
2013-01-21 18:34:00,56.7,16.1,18.32,NW,305,6.7,6.7,20,0.00,,,0.00,VWS V14.00,2013-01-21 23:34:00,
2013-01-21 18:39:00,56.7,16.1,18.32,West,262,4.0,8.1,20,0.00,,,0.00,VWS V14.00,2013-01-21 23:39:00,
2013-01-21 18:44:00,56.5,15.9,18.32,WSW,243,3.1,3.1,20,0.00,,,0.00,VWS V14.00,2013-01-21 23:44:00,
2013-01-21 18:49:00,56.3,15.8,18.32,North,353,6.3,7.6,20,0.00,,,0.00,VWS V14.00,2013-01-21 23:49:00,
2013-01-21 18:54:00,55.9,15.5,18.32,NNW,348,5.4,7.6,20,0.00,,,0.00,VWS V14.00,2013-01-21 23:54:00,
2013-01-21 18:59:00,55.6,15.2,18.32,West,281,6.3,10.1,20,0.00,,,0.00,VWS V14.00,2013-01-21 23:59:00,
2013-01-21 19:04:00,55.8,15.3,18.32,West,270,5.8,11.0,20,0.00,,,0.00,VWS V14.00,2013-01-22 00:04:00,
2013-01-21 19:09:00,55.4,15.0,18.32,NW,319,7.2,8.7,20,0.00,,,0.00,VWS V14.00,2013-01-22 00:09:00,
2013-01-21 19:15:00,55.2,14.9,18.32,WNW,293,4.0,4.0,20,0.00,,,0.00,VWS V14.00,2013-01-22 00:15:00,
2013-01-21 19:20:00,55.0,14.7,18.32,NW,312,4.0,8.3,20,0.00,,,0.00,VWS V14.00,2013-01-22 00:20:00,
2013-01-21 19:25:00,55.0,14.7,18.32,NW,325,5.4,6.3,20,0.00,,,0.00,VWS V14.00,2013-01-22 00:25:00,
2013-01-21 19:30:00,54.7,14.4,18.32,WNW,297,5.4,8.7,20,0.00,,,0.00,VWS V14.00,2013-01-22 00:30:00,
2013-01-21 19:35:00,54.5,14.3,18.32,WNW,290,7.6,8.7,20,0.00,,,0.00,VWS V14.00,2013-01-22 00:35:00,
2013-01-21 19:40:00,53.8,13.7,18.32,NW,321,3.1,5.4,20,0.00,,,0.00,VWS V14.00,2013-01-22 00:40:00,
2013-01-21 19:45:00,53.8,13.7,18.32,WNW,301,4.9,7.6,20,0.00,,,0.00,VWS V14.00,2013-01-22 00:45:00,
2013-01-21 19:50:00,53.8,13.7,18.32,NW,311,6.3,6.3,20,0.00,,,0.00,VWS V14.00,2013-01-22 00:50:00,
2013-01-21 19:55:00,53.6,13.5,18.32,West,276,5.8,5.8,20,0.00,,,0.00,VWS V14.00,2013-01-22 00:55:00,
2013-01-21 20:00:00,54.0,13.8,18.32,WNW,295,5.8,11.0,20,0.00,,,0.00,VWS V14.00,2013-01-22 01:00:00,
2013-01-21 20:05:00,53.8,13.7,18.32,WNW,300,8.1,11.0,20,0.00,,,0.00,VWS V14.00,2013-01-22 01:05:00,
2013-01-21 20:10:00,53.6,13.5,18.32,NNW,330,6.3,6.3,20,0.00,,,0.00,VWS V14.00,2013-01-22 01:10:00,
2013-01-21 20:15:00,53.2,14.3,18.32,North,349,8.1,10.5,21,0.00,,,0.00,VWS V14.00,2013-01-22 01:15:00,
2013-01-21 20:20:00,52.9,14.0,18.32,West,271,5.4,5.4,21,0.00,,,0.00,VWS V14.00,2013-01-22 01:20:00,
2013-01-21 20:26:00,52.7,13.9,18.32,North,353,5.8,8.1,21,0.00,,,0.00,VWS V14.00,2013-01-22 01:26:00,
2013-01-21 20:31:00,52.3,13.6,18.32,WSW,253,8.3,8.3,21,0.00,,,0.00,VWS V14.00,2013-01-22 01:31:00,
2013-01-21 20:36:00,52.3,13.6,18.32,NNW,340,5.4,10.1,21,0.00,,,0.00,VWS V14.00,2013-01-22 01:36:00,
2013-01-21 20:41:00,52.0,13.3,18.32,WNW,290,5.8,6.3,21,0.00,,,0.00,VWS V14.00,2013-01-22 01:41:00,
2013-01-21 20:46:00,51.8,13.1,18.32,WNW,284,4.9,10.5,21,0.00,,,0.00,VWS V14.00,2013-01-22 01:46:00,
2013-01-21 20:51:00,51.6,13.0,18.32,NW,305,2.7,5.8,21,0.00,,,0.00,VWS V14.00,2013-01-22 01:51:00,
2013-01-21 20:56:00,51.4,12.8,18.32,NW,317,5.8,7.6,21,0.00,,,0.00,VWS V14.00,2013-01-22 01:56:00,
2013-01-21 21:01:00,51.1,12.5,18.32,NW,305,3.6,6.3,21,0.00,,,0.00,VWS V14.00,2013-01-22 02:01:00,
2013-01-21 21:06:00,50.9,12.4,18.32,North,357,3.6,6.3,21,0.00,,,0.00,VWS V14.00,2013-01-22 02:06:00,
2013-01-21 21:11:00,50.7,12.2,18.32,North,353,2.2,6.3,21,0.00,,,0.00,VWS V14.00,2013-01-22 02:11:00,
2013-01-21 21:16:00,50.4,11.9,18.32,North,353,2.7,2.7,21,0.00,,,0.00,VWS V14.00,2013-01-22 02:16:00,
2013-01-21 21:21:00,50.2,11.8,18.32,WNW,283,8.3,8.3,21,0.00,,,0.00,VWS V14.00,2013-01-22 02:21:00,
2013-01-21 21:26:00,50.2,11.8,18.32,NNW,344,5.4,8.1,21,0.00,,,0.00,VWS V14.00,2013-01-22 02:26:00,
2013-01-21 21:31:00,49.8,11.5,18.32,NNW,342,2.7,5.8,21,0.00,,,0.00,VWS V14.00,2013-01-22 02:31:00,
2013-01-21 21:37:00,49.6,11.3,18.32,West,265,6.3,6.3,21,0.00,,,0.00,VWS V14.00,2013-01-22 02:37:00,
2013-01-21 21:42:00,49.5,11.2,18.32,North,0,5.4,5.8,21,0.00,,,0.00,VWS V14.00,2013-01-22 02:42:00,
2013-01-21 21:47:00,49.3,11.0,18.32,NW,307,5.8,7.6,21,0.00,,,0.00,VWS V14.00,2013-01-22 02:47:00,
2013-01-21 21:52:00,49.3,11.0,18.32,North,0,3.6,6.3,21,0.00,,,0.00,VWS V14.00,2013-01-22 02:52:00,
2013-01-21 21:57:00,48.9,10.7,18.32,WNW,299,4.0,5.4,21,0.00,,,0.00,VWS V14.00,2013-01-22 02:57:00,
2013-01-21 22:02:00,48.7,10.6,18.32,North,353,2.7,4.9,21,0.00,,,0.00,VWS V14.00,2013-01-22 03:02:00,
2013-01-21 22:07:00,48.7,10.6,18.32,NW,322,5.4,6.3,21,0.00,,,0.00,VWS V14.00,2013-01-22 03:07:00,
2013-01-21 22:12:00,48.6,8.2,18.32,NW,316,5.4,5.4,19,0.00,,,0.00,VWS V14.00,2013-01-22 03:12:00,
2013-01-21 22:17:00,48.6,8.2,18.32,NW,312,4.9,5.4,19,0.00,,,0.00,VWS V14.00,2013-01-22 03:17:00,
2013-01-21 22:22:00,48.6,8.2,18.32,NNW,339,5.8,9.6,19,0.00,,,0.00,VWS V14.00,2013-01-22 03:22:00,
2013-01-21 22:27:00,48.2,7.9,18.32,West,270,5.4,5.4,19,0.00,,,0.00,VWS V14.00,2013-01-22 03:27:00,
2013-01-21 22:32:00,48.0,7.7,18.32,WNW,300,4.9,5.4,19,0.00,,,0.00,VWS V14.00,2013-01-22 03:32:00,
2013-01-21 22:37:00,48.2,7.9,18.32,North,9,4.0,5.4,19,0.00,,,0.00,VWS V14.00,2013-01-22 03:37:00,
2013-01-21 22:42:00,48.0,7.7,18.32,NW,309,4.0,6.3,19,0.00,,,0.00,VWS V14.00,2013-01-22 03:42:00,
2013-01-21 22:48:00,48.0,7.7,18.32,NW,311,3.1,8.1,19,0.00,,,0.00,VWS V14.00,2013-01-22 03:48:00,
2013-01-21 22:53:00,47.7,7.4,18.32,NW,319,5.4,8.3,19,0.00,,,0.00,VWS V14.00,2013-01-22 03:53:00,
2013-01-21 22:58:00,47.3,7.1,18.32,North,353,4.9,5.4,19,0.00,,,0.00,VWS V14.00,2013-01-22 03:58:00,
2013-01-21 23:03:00,47.5,7.3,18.32,North,0,3.6,6.3,19,0.00,,,0.00,VWS V14.00,2013-01-22 04:03:00,
2013-01-21 23:08:00,47.3,7.1,18.32,West,275,5.8,5.8,19,0.00,,,0.00,VWS V14.00,2013-01-22 04:08:00,
2013-01-21 23:13:00,46.9,6.8,18.32,NNW,328,3.1,3.1,19,0.00,,,0.00,VWS V14.00,2013-01-22 04:13:00,
2013-01-21 23:18:00,46.9,6.8,18.32,WNW,301,5.4,5.8,19,0.00,,,0.00,VWS V14.00,2013-01-22 04:18:00,
2013-01-21 23:23:00,46.8,6.7,18.32,NW,317,6.3,6.3,19,0.00,,,0.00,VWS V14.00,2013-01-22 04:23:00,
2013-01-21 23:28:00,46.9,6.8,18.32,WNW,301,4.0,4.0,19,0.00,,,0.00,VWS V14.00,2013-01-22 04:28:00,
2013-01-21 23:33:00,46.6,6.5,18.32,NW,318,0.0,5.4,19,0.00,,,0.00,VWS V14.00,2013-01-22 04:33:00,
2013-01-21 23:38:00,46.6,6.5,18.32,North,353,2.7,4.0,19,0.00,,,0.00,VWS V14.00,2013-01-22 04:38:00,
2013-01-21 23:43:00,46.4,6.4,18.32,North,353,6.3,6.3,19,0.00,,,0.00,VWS V14.00,2013-01-22 04:43:00,
2013-01-21 23:48:00,46.2,7.4,18.32,North,353,4.9,4.9,20,0.00,,,0.00,VWS V14.00,2013-01-22 04:48:00,
2013-01-21 23:53:00,46.0,7.2,18.32,NW,318,2.7,7.6,20,0.00,,,0.00,VWS V14.00,2013-01-22 04:53:00,
2013-01-21 23:58:00,45.9,7.1,18.32,West,275,5.4,5.4,20,0.00,,,0.00,VWS V14.00,2013-01-22 04:58:00,